When you browse on this site, cookies collect data to enhance your experience and personalize the content and advertising you see.
Visit our Privacy Policy to learn more. By continuing to use the site, you agree to this use of cookies and data.
  • In Schweiz
  • Länderverzeichnis
  • Für 7 Tage
  • Wassertemperatur
  • Wetterkarte
  • Widgets
  • user-avatar
    Anmelden

    Stündliche Wetter Kamarang

    Heute, 29 Mai, Freitag

    Zeit Temperatur Niederschläge Wind Luftdruck Luftfeuchtigkeit
    00:00 +21°C° 0.1 mm 0 m/S 713 mmHg 99%
    01:00 +21°C° 0.1 mm 0 m/S 713 mmHg 99%
    02:00 +21°C° 0 mm 0 m/S 712 mmHg 99%
    03:00 +21°C° 0.2 mm 0 m/S 713 mmHg 99%
    04:00 +21°C° 0.2 mm 0 m/S 713 mmHg 99%
    05:00 +21°C° 0.2 mm 0 m/S 713 mmHg 99%
    06:00 +21°C° 0.1 mm 0 m/S 713 mmHg 98%
    07:00 +21°C° 0.1 mm 0 m/S 713 mmHg 98%
    08:00 +21°C° 0.1 mm 0 m/S 714 mmHg 97%
    09:00 +23°C° 0.2 mm 0 m/S 714 mmHg 91%
    10:00 +24°C° 0.2 mm 0 m/S 714 mmHg 86%
    11:00 +27°C° 0.2 mm 1 m/S 715 mmHg 80%
    12:00 +27°C° 1.3 mm 1 m/S 714 mmHg 82%
    13:00 +28°C° 1.3 mm 1 m/S 713 mmHg 83%
    14:00 +28°C° 1.3 mm 1 m/S 712 mmHg 85%
    15:00 +27°C° 1.6 mm 1 m/S 712 mmHg 88%
    16:00 +27°C° 1.6 mm 1 m/S 712 mmHg 91%
    17:00 +26°C° 1.6 mm 1 m/S 712 mmHg 94%
    18:00 +25°C° 0.8 mm 1 m/S 712 mmHg 95%
    19:00 +24°C° 0.8 mm 1 m/S 713 mmHg 97%
    20:00 +21°C° 0.8 mm 0 m/S 713 mmHg 98%
    21:00 +21°C° 0.3 mm 0 m/S 713 mmHg 99%
    22:00 +21°C° 0.3 mm 0 m/S 714 mmHg 99%
    23:00 +21°C° 0.3 mm 0 m/S 714 mmHg 99%

    Morgen, 30 Mai, Samstag

    Zeit Temperatur Niederschläge Wind Luftdruck Luftfeuchtigkeit
    00:00 +21°C° 0 mm 0 m/S 713 mmHg 99%
    01:00 +21°C° 0 mm 0 m/S 713 mmHg 99%
    02:00 +21°C° 0 mm 0 m/S 713 mmHg 99%
    03:00 +21°C° 0 mm 0 m/S 713 mmHg 99%
    04:00 +21°C° 0 mm 0 m/S 713 mmHg 99%
    05:00 +21°C° 0 mm 0 m/S 713 mmHg 99%
    06:00 +21°C° 0.1 mm 0 m/S 713 mmHg 97%
    07:00 +22°C° 0.1 mm 0 m/S 713 mmHg 94%
    08:00 +23°C° 0.1 mm 0 m/S 714 mmHg 92%
    09:00 +25°C° 0.1 mm 0 m/S 714 mmHg 79%
    10:00 +30°C° 0.1 mm 1 m/S 714 mmHg 67%
    11:00 +32°C° 0.1 mm 1 m/S 714 mmHg 54%
    12:00 +31°C° 0.5 mm 1 m/S 713 mmHg 58%
    13:00 +31°C° 0.5 mm 1 m/S 712 mmHg 62%
    14:00 +31°C° 0.5 mm 1 m/S 712 mmHg 66%
    15:00 +30°C° 0.9 mm 1 m/S 711 mmHg 74%
    16:00 +28°C° 0.9 mm 1 m/S 711 mmHg 81%
    17:00 +27°C° 0.9 mm 1 m/S 710 mmHg 89%
    18:00 +26°C° 0.4 mm 1 m/S 711 mmHg 92%
    19:00 +25°C° 0.4 mm 1 m/S 712 mmHg 95%
    20:00 +22°C° 0.4 mm 0 m/S 712 mmHg 98%
    21:00 +21°C° 0.3 mm 0 m/S 713 mmHg 98%
    22:00 +21°C° 0.3 mm 0 m/S 713 mmHg 99%
    23:00 +21°C° 0.3 mm 0 m/S 714 mmHg 99%

    übermorgen, 31 Mai, Sonntag

    Zeit Temperatur Niederschläge Wind Luftdruck Luftfeuchtigkeit
    00:00 +21°C° 0.1 mm 0 m/S 713 mmHg 99%
    01:00 +21°C° 0.1 mm 0 m/S 713 mmHg 99%
    02:00 +21°C° 0.1 mm 0 m/S 712 mmHg 99%
    03:00 +21°C° 0 mm 0 m/S 712 mmHg 99%
    04:00 +21°C° 0 mm 0 m/S 712 mmHg 99%
    05:00 +21°C° 0 mm 0 m/S 712 mmHg 99%
    06:00 +21°C° 0 mm 0 m/S 713 mmHg 97%
    07:00 +22°C° 0 mm 0 m/S 713 mmHg 96%
    08:00 +23°C° 0 mm 0 m/S 714 mmHg 94%
    09:00 +25°C° 0.1 mm 0 m/S 714 mmHg 81%
    10:00 +30°C° 0.1 mm 1 m/S 714 mmHg 67%
    11:00 +32°C° 0.1 mm 1 m/S 715 mmHg 54%
    12:00 +31°C° 1.1 mm 1 m/S 714 mmHg 63%
    13:00 +30°C° 1.1 mm 1 m/S 713 mmHg 73%
    14:00 +29°C° 1.1 mm 1 m/S 712 mmHg 83%
    15:00 +28°C° 1.7 mm 1 m/S 712 mmHg 86%
    16:00 +27°C° 1.7 mm 1 m/S 711 mmHg 90%
    17:00 +26°C° 1.7 mm 1 m/S 711 mmHg 93%
    18:00 +25°C° 0.7 mm 1 m/S 712 mmHg 95%
    19:00 +24°C° 0.7 mm 1 m/S 712 mmHg 97%
    20:00 +23°C° 0.7 mm 1 m/S 713 mmHg 98%
    21:00 +21°C° 0.2 mm 0 m/S 713 mmHg 99%
    22:00 +21°C° 0.2 mm 0 m/S 713 mmHg 99%
    23:00 +21°C° 0.2 mm 0 m/S 714 mmHg 99%

    1 Juni, Montag

    Zeit Temperatur Niederschläge Wind Luftdruck Luftfeuchtigkeit
    00:00 +21°C° 0.1 mm 0 m/S 713 mmHg 99%
    01:00 +21°C° 0.1 mm 0 m/S 713 mmHg 99%
    02:00 +21°C° 0.1 mm 0 m/S 713 mmHg 99%
    03:00 +21°C° 0.1 mm 0 m/S 713 mmHg 99%
    04:00 +21°C° 0.1 mm 0 m/S 713 mmHg 99%
    05:00 +21°C° 0.1 mm 0 m/S 713 mmHg 99%
    06:00 +22°C° 0.2 mm 0 m/S 713 mmHg 97%
    07:00 +22°C° 0.2 mm 0 m/S 714 mmHg 96%
    08:00 +23°C° 0.2 mm 0 m/S 714 mmHg 95%
    09:00 +25°C° 0.3 mm 0 m/S 714 mmHg 84%
    10:00 +27°C° 0.3 mm 0 m/S 714 mmHg 73%
    11:00 +29°C° 0.3 mm 0 m/S 714 mmHg 62%
    12:00 +30°C° 1.1 mm 1 m/S 713 mmHg 69%
    13:00 +29°C° 1.1 mm 1 m/S 713 mmHg 76%
    14:00 +28°C° 1.1 mm 1 m/S 712 mmHg 83%
    15:00 +28°C° 0.8 mm 1 m/S 712 mmHg 85%
    16:00 +27°C° 0.8 mm 1 m/S 711 mmHg 86%
    17:00 +27°C° 0.8 mm 1 m/S 711 mmHg 88%
    18:00 +25°C° 0.5 mm 1 m/S 712 mmHg 91%
    19:00 +24°C° 0.5 mm 1 m/S 712 mmHg 94%
    20:00 +21°C° 0.5 mm 0 m/S 713 mmHg 98%
    21:00 +21°C° 0.1 mm 0 m/S 713 mmHg 98%
    22:00 +21°C° 0.1 mm 0 m/S 713 mmHg 98%
    23:00 +21°C° 0.1 mm 0 m/S 714 mmHg 98%

    2 Juni, Dienstag

    Zeit Temperatur Niederschläge Wind Luftdruck Luftfeuchtigkeit
    00:00 +21°C° 0.1 mm 0 m/S 713 mmHg 98%
    01:00 +21°C° 0.1 mm 0 m/S 713 mmHg 99%
    02:00 +21°C° 0.1 mm 0 m/S 712 mmHg 99%
    03:00 +21°C° 0.1 mm 0 m/S 712 mmHg 99%
    04:00 +21°C° 0.1 mm 0 m/S 712 mmHg 99%
    05:00 +21°C° 0.1 mm 0 m/S 712 mmHg 99%
    06:00 +21°C° 0.2 mm 0 m/S 713 mmHg 98%
    07:00 +22°C° 0.2 mm 0 m/S 713 mmHg 97%
    08:00 +22°C° 0.2 mm 0 m/S 714 mmHg 96%
    09:00 +25°C° 0.8 mm 1 m/S 714 mmHg 90%
    10:00 +27°C° 0.8 mm 1 m/S 714 mmHg 84%
    11:00 +28°C° 0.8 mm 1 m/S 714 mmHg 78%
    12:00 +28°C° 1.5 mm 1 m/S 713 mmHg 81%
    13:00 +28°C° 1.5 mm 1 m/S 712 mmHg 83%
    14:00 +28°C° 1.5 mm 1 m/S 711 mmHg 86%
    15:00 +28°C° 0.5 mm 1 m/S 711 mmHg 83%
    16:00 +28°C° 0.5 mm 1 m/S 711 mmHg 81%
    17:00 +28°C° 0.5 mm 1 m/S 711 mmHg 79%
    18:00 +26°C° 0.2 mm 1 m/S 711 mmHg 85%
    19:00 +25°C° 0.2 mm 1 m/S 712 mmHg 91%
    20:00 +21°C° 0.2 mm 0 m/S 712 mmHg 97%
    21:00 +21°C° 0 mm 0 m/S 713 mmHg 97%
    22:00 +21°C° 0 mm 0 m/S 713 mmHg 97%
    23:00 +21°C° 0 mm 0 m/S 713 mmHg 97%

    3 Juni, Mittwoch

    Zeit Temperatur Niederschläge Wind Luftdruck Luftfeuchtigkeit
    00:00 +20°C° 0 mm 0 m/S 713 mmHg 98%
    01:00 +20°C° 0 mm 0 m/S 712 mmHg 98%
    02:00 +20°C° 0 mm 0 m/S 712 mmHg 99%
    03:00 +20°C° 0 mm 0 m/S 712 mmHg 99%
    04:00 +19°C° 0 mm 0 m/S 712 mmHg 99%
    05:00 +19°C° 0 mm 0 m/S 712 mmHg 99%
    06:00 +20°C° 0 mm 0 m/S 712 mmHg 95%
    07:00 +21°C° 0 mm 0 m/S 713 mmHg 91%
    08:00 +22°C° 0 mm 0 m/S 713 mmHg 87%
    09:00 +24°C° 0 mm 0 m/S 714 mmHg 74%
    10:00 +29°C° 0 mm 1 m/S 714 mmHg 62%
    11:00 +31°C° 0 mm 1 m/S 714 mmHg 50%
    12:00 +31°C° 0 mm 1 m/S 713 mmHg 48%
    13:00 +32°C° 0 mm 1 m/S 712 mmHg 46%
    14:00 +34°C° 0 mm 2 m/S 711 mmHg 45%
    15:00 +32°C° 0 mm 2 m/S 711 mmHg 50%
    16:00 +30°C° 0 mm 2 m/S 711 mmHg 56%
    17:00 +29°C° 0 mm 2 m/S 711 mmHg 61%
    18:00 +27°C° 0.3 mm 2 m/S 711 mmHg 72%
    19:00 +25°C° 0.3 mm 1 m/S 711 mmHg 83%
    20:00 +21°C° 0.3 mm 0 m/S 712 mmHg 94%
    21:00 +21°C° 0.3 mm 0 m/S 712 mmHg 95%
    22:00 +21°C° 0.3 mm 0 m/S 713 mmHg 96%
    23:00 +21°C° 0.3 mm 0 m/S 713 mmHg 97%
    Mehr zeigen